Time,TemperatureF,DewpointF,PressureIn,WindDirection,WindDirectionDegrees,WindSpeedMPH,WindSpeedGustMPH,Humidity,HourlyPrecipIn,Conditions,Clouds,dailyrainin,SolarRadiationWatts/m^2,SoftwareType,DateUTC
2013-02-22 00:00:00,23.0,16.0,-100.00,SE,135,17.0,-999.0,73,-99.99,,,-99.99,0.000000,,2013-02-22 05:00:00,
2013-02-22 00:42:00,23.0,16.0,-100.00,SE,135,17.0,-999.0,73,-99.99,,,-99.99,0.000000,,2013-02-22 05:42:00,
2013-02-22 00:52:00,23.0,16.0,-100.00,SE,135,17.0,-999.0,73,-99.99,,,-99.99,0.000000,,2013-02-22 05:52:00,
2013-02-22 01:00:00,22.0,15.0,-100.00,SE,135,16.0,-999.0,73,-99.99,,,-99.99,0.000000,,2013-02-22 06:00:00,
2013-02-22 01:32:00,22.0,15.0,-100.00,SE,135,16.0,-999.0,73,-99.99,,,-99.99,0.000000,,2013-02-22 06:32:00,
2013-02-22 01:42:00,22.0,15.0,-100.00,SE,135,16.0,-999.0,73,-99.99,,,-99.99,0.000000,,2013-02-22 06:42:00,
2013-02-22 01:52:00,22.0,15.0,-100.00,SE,135,16.0,-999.0,73,-99.99,,,-99.99,0.000000,,2013-02-22 06:52:00,
2013-02-22 02:00:00,22.0,16.0,-100.00,SE,135,15.0,-999.0,77,-99.99,,,-99.99,0.000000,,2013-02-22 07:00:00,
2013-02-22 02:42:00,22.0,16.0,-100.00,SE,135,15.0,-999.0,77,-99.99,,,-99.99,0.000000,,2013-02-22 07:42:00,
2013-02-22 02:52:00,22.0,16.0,-100.00,SE,135,15.0,-999.0,77,-99.99,,,-99.99,0.000000,,2013-02-22 07:52:00,
2013-02-22 03:00:00,21.0,18.0,-100.00,SE,135,14.0,-999.0,86,-99.99,,,-99.99,0.000000,,2013-02-22 08:00:00,
2013-02-22 03:42:00,21.0,18.0,-100.00,SE,135,14.0,-999.0,86,-99.99,,,-99.99,0.000000,,2013-02-22 08:42:00,
2013-02-22 03:52:00,21.0,18.0,-100.00,SE,135,14.0,-999.0,86,-99.99,,,-99.99,0.000000,,2013-02-22 08:52:00,
2013-02-22 04:00:00,21.0,19.0,-100.00,SE,135,13.0,-999.0,90,-99.99,,,-99.99,0.000000,,2013-02-22 09:00:00,
2013-02-22 04:42:00,21.0,19.0,-100.00,SE,135,13.0,-999.0,90,-99.99,,,-99.99,0.000000,,2013-02-22 09:42:00,
2013-02-22 04:52:00,21.0,19.0,-100.00,SE,135,13.0,-999.0,90,-99.99,,,-99.99,0.000000,,2013-02-22 09:52:00,
2013-02-22 05:00:00,22.0,20.0,-100.00,SE,135,14.0,-999.0,92,-99.99,,,-99.99,0.000000,,2013-02-22 10:00:00,
2013-02-22 05:42:00,22.0,20.0,-100.00,SE,135,14.0,-999.0,92,-99.99,,,-99.99,0.000000,,2013-02-22 10:42:00,
2013-02-22 05:52:00,22.0,20.0,-100.00,SE,135,14.0,-999.0,92,-99.99,,,-99.99,0.000000,,2013-02-22 10:52:00,
2013-02-22 06:00:00,23.0,20.0,-100.00,SSE,157,13.0,-999.0,91,-99.99,,,-99.99,0.000000,,2013-02-22 11:00:00,
2013-02-22 06:42:00,23.0,20.0,-100.00,SSE,157,13.0,-999.0,91,-99.99,,,-99.99,0.000000,,2013-02-22 11:42:00,
2013-02-22 06:52:00,23.0,20.0,-100.00,SSE,157,13.0,-999.0,91,-99.99,,,-99.99,0.000000,,2013-02-22 11:52:00,
2013-02-22 07:00:00,23.0,21.0,-100.00,SSE,157,12.0,-999.0,91,-99.99,,,-99.99,0.000000,,2013-02-22 12:00:00,
2013-02-22 07:42:00,23.0,21.0,-100.00,SSE,157,12.0,-999.0,91,-99.99,,,-99.99,0.000000,,2013-02-22 12:42:00,
2013-02-22 07:52:00,23.0,21.0,-100.00,SSE,157,12.0,-999.0,91,-99.99,,,-99.99,0.000000,,2013-02-22 12:52:00,
2013-02-22 08:00:00,23.0,21.0,-100.00,SSE,157,12.0,-999.0,89,-99.99,,,-99.99,3.480000,,2013-02-22 13:00:00,
2013-02-22 08:42:00,23.0,21.0,-100.00,SSE,157,12.0,-999.0,89,-99.99,,,-99.99,3.480000,,2013-02-22 13:42:00,
2013-02-22 08:52:00,23.0,21.0,-100.00,SSE,157,12.0,-999.0,89,-99.99,,,-99.99,3.480000,,2013-02-22 13:52:00,
2013-02-22 09:00:00,24.0,21.0,-100.00,SSE,157,12.0,-999.0,87,-99.99,,,-99.99,38.279999,,2013-02-22 14:00:00,
2013-02-22 09:42:00,24.0,21.0,-100.00,SSE,157,12.0,-999.0,87,-99.99,,,-99.99,38.279999,,2013-02-22 14:42:00,
2013-02-22 09:53:00,24.0,21.0,-100.00,SSE,157,12.0,-999.0,87,-99.99,,,-99.99,38.279999,,2013-02-22 14:53:00,
2013-02-22 10:00:00,25.0,20.0,-100.00,SSE,157,11.0,-999.0,83,-99.99,,,-99.99,92.800003,,2013-02-22 15:00:00,
2013-02-22 10:42:00,25.0,20.0,-100.00,SSE,157,11.0,-999.0,83,-99.99,,,-99.99,92.800003,,2013-02-22 15:42:00,
2013-02-22 10:52:00,25.0,20.0,-100.00,SSE,157,11.0,-999.0,83,-99.99,,,-99.99,92.800003,,2013-02-22 15:52:00,
2013-02-22 11:00:00,25.0,21.0,-100.00,South,180,10.0,-999.0,84,-99.99,,,-99.99,139.199997,,2013-02-22 16:00:00,
2013-02-22 11:42:00,25.0,21.0,-100.00,South,180,10.0,-999.0,84,-99.99,,,-99.99,139.199997,,2013-02-22 16:42:00,
2013-02-22 11:52:00,25.0,21.0,-100.00,South,180,10.0,-999.0,84,-99.99,,,-99.99,139.199997,,2013-02-22 16:52:00,
2013-02-22 12:00:00,27.0,23.0,-100.00,South,180,10.0,-999.0,87,-99.99,,,-99.99,179.800003,,2013-02-22 17:00:00,
2013-02-22 12:42:00,27.0,23.0,-100.00,South,180,10.0,-999.0,87,-99.99,,,-99.99,179.800003,,2013-02-22 17:42:00,
2013-02-22 12:52:00,27.0,23.0,-100.00,South,180,10.0,-999.0,87,-99.99,,,-99.99,179.800003,,2013-02-22 17:52:00,
2013-02-22 13:00:00,28.0,25.0,-100.00,South,180,8.0,-999.0,89,-99.99,,,-99.99,161.240005,,2013-02-22 18:00:00,
2013-02-22 13:42:00,28.0,25.0,-100.00,South,180,8.0,-999.0,89,-99.99,,,-99.99,161.240005,,2013-02-22 18:42:00,
2013-02-22 13:52:00,28.0,25.0,-100.00,South,180,8.0,-999.0,89,-99.99,,,-99.99,161.240005,,2013-02-22 18:52:00,
2013-02-22 14:00:00,29.0,27.0,-100.00,SSW,202,7.0,-999.0,90,-99.99,,,-99.99,147.320007,,2013-02-22 19:00:00,
2013-02-22 14:42:00,29.0,27.0,-100.00,SSW,202,7.0,-999.0,90,-99.99,,,-99.99,147.320007,,2013-02-22 19:42:00,
2013-02-22 14:52:00,29.0,27.0,-100.00,SSW,202,7.0,-999.0,90,-99.99,,,-99.99,147.320007,,2013-02-22 19:52:00,
2013-02-22 15:00:00,31.0,28.0,-100.00,SSW,202,6.0,-999.0,91,-99.99,,,-99.99,125.279999,,2013-02-22 20:00:00,
2013-02-22 15:42:00,31.0,28.0,-100.00,SSW,202,6.0,-999.0,91,-99.99,,,-99.99,125.279999,,2013-02-22 20:42:00,
2013-02-22 15:52:00,31.0,28.0,-100.00,SSW,202,6.0,-999.0,91,-99.99,,,-99.99,125.279999,,2013-02-22 20:52:00,
2013-02-22 16:00:00,32.0,30.0,-100.00,SSW,202,6.0,-999.0,92,0.03,,,-99.99,93.959999,,2013-02-22 21:00:00,
2013-02-22 16:42:00,32.0,30.0,-100.00,SSW,202,6.0,-999.0,92,0.03,,,-99.99,93.959999,,2013-02-22 21:42:00,
2013-02-22 16:52:00,32.0,30.0,-100.00,SSW,202,6.0,-999.0,92,0.03,,,-99.99,93.959999,,2013-02-22 21:52:00,
2013-02-22 17:00:00,33.0,31.0,-100.00,WSW,247,7.0,-999.0,93,0.04,,,-99.99,48.720001,,2013-02-22 22:00:00,
2013-02-22 17:42:00,33.0,31.0,-100.00,WSW,247,7.0,-999.0,93,0.04,,,-99.99,48.720001,,2013-02-22 22:42:00,
2013-02-22 17:52:00,33.0,31.0,-100.00,WSW,247,7.0,-999.0,93,0.04,,,-99.99,48.720001,,2013-02-22 22:52:00,
2013-02-22 18:00:00,33.0,31.0,-100.00,West,270,9.0,-999.0,90,0.02,,,-99.99,12.760000,,2013-02-22 23:00:00,
2013-02-22 18:42:00,33.0,31.0,-100.00,West,270,9.0,-999.0,90,0.02,,,-99.99,12.760000,,2013-02-22 23:42:00,
2013-02-22 18:52:00,33.0,31.0,-100.00,West,270,9.0,-999.0,90,0.02,,,-99.99,12.760000,,2013-02-22 23:52:00,
2013-02-22 19:00:00,33.0,30.0,-100.00,West,270,10.0,-999.0,87,-99.99,,,-99.99,1.160000,,2013-02-23 00:00:00,
2013-02-22 19:42:00,33.0,30.0,-100.00,West,270,10.0,-999.0,87,-99.99,,,-99.99,1.160000,,2013-02-23 00:42:00,
2013-02-22 19:52:00,33.0,30.0,-100.00,West,270,10.0,-999.0,87,-99.99,,,-99.99,1.160000,,2013-02-23 00:52:00,
2013-02-22 20:00:00,33.0,27.0,-100.00,West,270,11.0,-999.0,80,-99.99,,,-99.99,0.000000,,2013-02-23 01:00:00,
2013-02-22 20:42:00,33.0,27.0,-100.00,West,270,11.0,-999.0,80,-99.99,,,-99.99,0.000000,,2013-02-23 01:42:00,
2013-02-22 20:52:00,33.0,27.0,-100.00,West,270,11.0,-999.0,80,-99.99,,,-99.99,0.000000,,2013-02-23 01:52:00,
2013-02-22 21:00:00,32.0,24.0,-100.00,WNW,292,12.0,-999.0,74,-99.99,,,-99.99,0.000000,,2013-02-23 02:00:00,
2013-02-22 21:42:00,32.0,24.0,-100.00,WNW,292,12.0,-999.0,74,-99.99,,,-99.99,0.000000,,2013-02-23 02:42:00,
2013-02-22 21:52:00,32.0,24.0,-100.00,WNW,292,12.0,-999.0,74,-99.99,,,-99.99,0.000000,,2013-02-23 02:52:00,
2013-02-22 22:00:00,30.0,22.0,-100.00,West,270,11.0,-999.0,70,-99.99,,,-99.99,0.000000,,2013-02-23 03:00:00,
2013-02-22 22:42:00,30.0,22.0,-100.00,West,270,11.0,-999.0,70,-99.99,,,-99.99,0.000000,,2013-02-23 03:42:00,
2013-02-22 22:52:00,30.0,22.0,-100.00,West,270,11.0,-999.0,70,-99.99,,,-99.99,0.000000,,2013-02-23 03:52:00,
2013-02-22 23:00:00,30.0,22.0,-100.00,West,270,9.0,-999.0,73,-99.99,,,-99.99,0.000000,,2013-02-23 04:00:00,
2013-02-22 23:42:00,30.0,22.0,-100.00,West,270,9.0,-999.0,73,-99.99,,,-99.99,0.000000,,2013-02-23 04:42:00,
2013-02-22 23:52:00,30.0,22.0,-100.00,West,270,9.0,-999.0,73,-99.99,,,-99.99,0.000000,,2013-02-23 04:52:00,